This demonstration page uses our WeatherBlox Daily Observations layout. Learn more.

Left ArrowRight Arrow

Hourly Observations for September 22, 2020

Temp ( °F °C ) Dew Point ( °F °C ) Humidity (%) Winds ( mph kmh ) Pressure ( in mb ) Visibility ( mi km ) Precip ( " mm )
12:59 am 00:59 Mostly Cloudy 62 16.7 45 7.2 54 54 NNE 15 24 30.32 1027 10 16 0.00 0.00
1:59 am 01:59 Mostly Cloudy 62 16.7 45 7.2 54 54 NNE 15 24 30.30 1026 10 16 0.00 0.00
2:59 am 02:59 Mostly Cloudy 62 16.7 43 6.1 50 50 NNE 16 26 30.28 1025 10 16 0.00 0.00
3:59 am 03:59 Mostly Clear 61 16.1 42 5.6 50 50 NNE 15 24 30.26 1025 10 16 0.00 0.00
4:59 am 04:59 Mostly Clear 61 16.1 39 3.9 44 44 N 14 22 30.25 1024 10 16 0.00 0.00
5:59 am 05:59 Mostly Clear 58 14.4 48 8.9 70 70 NNW 14 22 30.25 1024 10 16 0.00 0.00
6:59 am 06:59 Mostly Sunny 57 13.9 48 8.9 72 72 NNW 13 20 30.25 1025 10 16 0.00 0.00
7:59 am 07:59 Mostly Sunny 58 14.4 48 8.9 70 70 NNW 13 20 30.25 1025 10 16 0.00 0.00
8:59 am 08:59 Sunny 60 15.6 47 8.3 62 62 NNW 13 20 30.25 1024 10 16 0.00 0.00
9:59 am 09:59 Sunny 63 17.2 46 7.8 54 54 NNW 12 19 30.25 1025 10 16 0.00 0.00
10:59 am 10:59 Sunny 65 18.3 46 7.8 51 51 NNW 14 22 30.24 1024 10 16 0.00 0.00
11:59 am 11:59 Sunny 66 18.9 46 7.8 49 49 N 9 15 30.22 1024 10 16 0.00 0.00
12:59 pm 12:59 Mostly Sunny 68 20 43 6.1 40 40 NNW 9 15 30.18 1022 10 16 0.00 0.00
1:59 pm 13:59 Mostly Sunny 67 19.4 44 6.7 44 44 WNW 16 26 30.14 1021 10 16 0.00 0.00
2:59 pm 14:59 Mostly Sunny 68 20 40 4.4 36 36 W 14 22 30.11 1020 10 16 0.00 0.00
3:59 pm 15:59 Sunny 69 20.6 42 5.6 38 38 NW 14 22 30.08 1019 10 16 0.00 0.00
4:59 pm 16:59 Sunny 69 20.6 41 5 36 36 NW 14 22 30.08 1019 10 16 0.00 0.00
5:59 pm 17:59 Sunny 68 20 40 4.4 36 36 WNW 13 20 30.07 1018 10 16 0.00 0.00
6:59 pm 18:59 Mostly Sunny 65 18.3 44 6.7 47 47 W 10 17 30.06 1018 10 16 0.00 0.00
7:59 pm 19:59 Mostly Clear 64 17.8 46 7.8 52 52 W 5 7 30.06 1018 10 16 0.00 0.00
8:59 pm 20:59 Clear 60 15.6 49 9.4 67 67 SW 5 7 30.07 1018 10 16 0.00 0.00
9:59 pm 21:59 Clear 61 16.1 48 8.9 63 63 WSW 6 9 30.05 1018 10 16 0.00 0.00
10:59 pm 22:59 Clear 61 16.1 49 9.4 65 65 WSW 3 6 30.05 1018 10 16 0.00 0.00
11:59 pm 23:59 Clear 60 15.6 50 10 70 70 WSW 5 7 30.05 1018 10 16 0.00 0.00

Powered by AerisWeather